Location: Moscow
(55.7500°N, 37.5830°E)
Time: 20:17:12
(UTC+03:00)

Transit 2A Rocket - Pass Details

Date: 05 December 2021
Orbit: 584 x 917 km, 66.7° (Epoch: 23 January)

Event Time Altitude Azimuth Distance (km) Brightness Sun altitude
Rises 17:20:04 0° 314° (NW) 3,566 8.7 -10.4°
Reaches altitude 10° 17:23:03 10° 302° (WNW) 2,609 8.2 -10.8°
Maximum altitude 17:27:49 25° 250° (WSW) 1,745 7.9 -11.4°
Drops below altitude 10° 17:32:24 10° 198° (SSW) 2,496 8.2 -12.0°
Sets 17:35:12 0° 185° (S) 3,379 8.7 -12.3°
